Find Starlink 5584

NORAD ID: 55769 Int'l Des: 2023-028 Owner: SPXS Country: US Constellation: starlink operational
LEOCIRCULAR

Current View

Loading 3D Globe...

About Starlink 5584

Description loading...

Upcoming Passes

Passes for default location (London). Set your location on the main map for personalized predictions.

Altitude History

Loading altitude history...

Two-Line Element Set

1 55769U 23028AE 26146.07752929 -.00000178 00000-0 -71085-5 0 9991
2 55769 70.0001 29.3939 0002738 269.9977 90.0868 14.98326641178120
Epoch: May 26, 2026 • Age: 18 hours

Current Status

Altitude 584.5 km
Velocity 7.57 km/s
Sub-Earth Point 64.86°N, 26.71°W
Launch Date Mar 3, 2023
Age 3.2 years
Type internet

Technical Details

Classification Payload
Mass 305.00 kg
Dry Mass 290.00 kg
Total Mass 305.00 kg
Length 0.20 m
Diameter 2.80 m
Span 9.00 m
Shape Box + pan
Manufacturer SPXS
Bus Type Starlink
Phase Status In Orbit
Owner/State SPXS/US

Most Searched